Content
SEND FEEDBACK

Daily
Averages
Monthly
Summary
Iran

MASHHAD, IRAN


Home > Middle East > Iran
Elevation: 3214 feet     Latitude: 36 16N     Longitude: 059 38E

WEATHER
 
SELECT A DAY
Number of Records: 209,563;   Date Range: 2/9/98 - 10/23/14
 
SHARE

PRINT THIS DATA

[ ← Previous Day ]
WEATHER ALMANAC - JUNE 28, 2013
[ Next Day → ]
[ °C ]   °F
We're sorry. There is no daily almanac available for Mashhad, Iran on June 28, 2013.
WEATHER BY HOUR - JUNE 28, 2013
[ °C ]   °F
Local TimeTemperatureDewpointHumidityBarometerVisibilityWind DirectionWind SpeedGust SpeedPrecipitationEventsConditions
12:55 AM75.2 °F50.0 °F41 %29.86 in6.2 miCalmMostly Cloudy
1:30 AM75.2 °F50.0 °F41 %29.86 in6.2 miNW (310°)6.9 mphMostly Cloudy
2:00 AM75.2 °F50.0 °F41 %29.86 in6.2 miNW (320°)13.8 mphMostly Cloudy
2:30 AM73.4 °F48.2 °F41 %29.86 in6.2 miNW (310°)13.8 mphMostly Cloudy
3:00 AM71.6 °F48.2 °F43 %29.86 in6.2 miNW (320°)16.1 mphPartly Cloudy
3:30 AM71.6 °F48.2 °F43 %29.86 in6.2 miWNW (300°)13.8 mphPartly Cloudy
4:00 AM71.6 °F46.4 °F41 %29.86 in6.2 miNW (320°)18.4 mphScattered Clouds
4:30 AM71.0 °F46.0 °F29 %29.66 in7.0 miNW (310°)22.4 mphPartly Cloudy
4:30 AM0.0 °F0.0 °F29.86 in6.2 miNW (310°)23.0 mphScattered Clouds
5:00 AM71.6 °F44.6 °F38 %29.89 in6.2 miNW (310°)13.8 mphScattered Clouds
5:30 AM69.8 °F44.6 °F40 %29.89 in6.2 miNW (320°)20.7 mphScattered Clouds
6:00 AM69.8 °F44.6 °F40 %29.89 in6.2 miNW (310°)18.4 mphMostly Cloudy
6:20 AM69.8 °F42.8 °F38 %29.89 in6.2 miNW (310°)18.4 mphMostly Cloudy
6:30 AM69.8 °F42.8 °F38 %29.89 in6.2 miNW (310°)18.4 mphMostly Cloudy
7:00 AM69.8 °F42.8 °F38 %29.89 in6.2 miNNW (340°)16.1 mphMostly Cloudy
7:30 AM71.6 °F42.8 °F35 %29.92 in6.2 miNW (310°)16.1 mphMostly Cloudy
7:55 AM71.6 °F42.8 °F35 %29.95 in6.2 miNW (310°)16.1 mphMostly Cloudy
8:20 AM71.6 °F42.8 °F35 %29.92 in6.2 miNW (320°)18.4 mphMostly Cloudy
8:30 AM71.6 °F42.8 °F35 %29.92 in6.2 miNW (320°)18.4 mphMostly Cloudy
8:55 AM71.6 °F46.4 °F41 %29.95 in6.2 miNNW (340°)16.1 mphMostly Cloudy
9:30 AM73.4 °F46.4 °F38 %29.95 in6.2 miNNW (340°)11.5 mphMostly Cloudy
9:55 AM75.2 °F46.4 °F36 %29.95 in6.2 miNorth (10°)9.2 mphMostly Cloudy
10:30 AM77.0 °F47.0 °F24 %29.75 in7.0 miEast (80°)4.5 mphMostly Cloudy
10:30 AM77.0 °F48.2 °F36 %29.95 in6.2 miEast (80°)4.6 mphMostly Cloudy
11:00 AM77.0 °F46.4 °F34 %29.92 in6.2 miCalmScattered Clouds
11:30 AM78.8 °F46.4 °F32 %29.92 in6.2 miSE (140°)11.5 mphScattered Clouds
11:55 AM78.8 °F46.4 °F32 %29.92 in6.2 miEast (80°)6.9 mphMostly Cloudy
12:30 PM80.6 °F46.4 °F30 %29.92 in6.2 miESE (110°)4.6 mphScattered Clouds
12:55 PM80.6 °F46.4 °F30 %29.89 in6.2 miSSW (200°)6.9 mphScattered Clouds
1:30 PM82.4 °F46.4 °F28 %29.89 in6.2 miESE (110°)16.1 mphScattered Clouds
2:00 PM84.2 °F44.6 °F25 %29.89 in6.2 miESE (110°)6.9 mphScattered Clouds
2:30 PM84.2 °F46.4 °F27 %29.86 in6.2 miNE (40°)9.2 mphScattered Clouds
3:00 PM84.2 °F44.6 °F25 %29.86 in6.2 miESE (120°)6.9 mphMostly Cloudy
3:20 PM86.0 °F46.4 °F25 %29.86 in6.2 miENE (70°)9.2 mphScattered Clouds
3:30 PM86.0 °F46.4 °F25 %29.86 in6.2 miENE (70°)9.2 mphScattered Clouds
4:00 PM84.2 °F44.6 °F25 %29.83 in6.2 miENE (60°)9.2 mphPartly Cloudy
4:30 PM82.0 °F46.0 °F18 %29.65 in7.0 miEast (90°)8.9 mphMostly Cloudy
4:30 PM82.4 °F46.4 °F28 %29.83 in6.2 miEast (90°)9.2 mphPartly Cloudy
5:00 PM82.4 °F44.6 °F26 %29.83 in6.2 miENE (60°)9.2 mphPartly Cloudy
5:30 PM82.4 °F44.6 °F26 %29.83 in6.2 miENE (70°)16.1 mphPartly Cloudy
6:00 PM80.6 °F44.6 °F28 %29.83 in6.2 miENE (70°)9.2 mphPartly Cloudy
6:20 PM80.6 °F44.6 °F28 %29.83 in6.2 miEast (90°)11.5 mphPartly Cloudy
6:30 PM80.6 °F44.6 °F28 %29.83 in6.2 miEast (90°)11.5 mphPartly Cloudy
7:00 PM80.6 °F44.6 °F28 %29.83 in6.2 miENE (60°)11.5 mphPartly Cloudy
7:30 PM78.8 °F42.8 °F28 %29.83 in6.2 miNE (50°)11.5 mphPartly Cloudy
7:55 PM77.0 °F44.6 °F32 %29.86 in6.2 miENE (60°)13.8 mphScattered Clouds
8:30 PM77.0 °F44.6 °F32 %29.86 in6.2 miNE (50°)18.4 mphScattered Clouds
9:00 PM77.0 °F46.4 °F34 %29.86 in6.2 miENE (70°)11.5 mphMostly Cloudy
9:30 PM75.2 °F46.4 °F36 %29.89 in6.2 miENE (70°)11.5 mphMostly Cloudy
9:55 PM75.2 °F46.4 °F36 %29.89 in6.2 miEast (100°)6.9 mphScattered Clouds
10:30 PM74.0 °F45.0 °F25 %29.70 in7.0 miEast (90°)6.7 mphPartly Cloudy
10:30 PM75.2 °F44.6 °F34 %29.89 in6.2 miEast (90°)6.9 mphScattered Clouds
10:55 PM73.4 °F44.6 °F36 %29.89 in6.2 miENE (70°)4.6 mphScattered Clouds
11:20 PM73.4 °F44.6 °F36 %29.89 in6.2 miNNE (30°)4.6 mphScattered Clouds
11:30 PM73.4 °F44.6 °F36 %29.89 in6.2 miNNE (30°)4.6 mphScattered Clouds
Hourly data recorded from OIMM, located miles away from Mashhad, Iran







STORIES FROM OUR PARTNERS